User: anonymous   Login
Location: Arapaho Elementary School
(32.9607°N, 96.7625°W)
Time: 15:44:43
(UTC+00:00)
Language:

Meteor 1-31 Rocket - Orbit

View from above orbital plane
View from above orbital plane
View from above satellite
View from above satellite

Ground track
Ground track

The orbit data is extracted from the following two-line orbital elements,

1 12586U 81065B   22146.15833438  .00002749  00000-0  16303-3 0  9990
2 12586  97.6831 140.3877 0019657 128.8741 231.4246 15.12065224228852
Epoch (UTC): 26 May 2022 03:48:00
Eccentricity: 0.0019657
inclination: 97.6831°
perigee height: 516 km
apogee height: 543 km
right ascension of ascending node: 140.3877°
argument of perigee: 128.8741°
revolutions per day: 15.12065224
mean anomaly at epoch: 231.4246°
orbit number at epoch: 22885

The dashed part of the orbit path shows where the satellite is in the earth's shadow,  

DLR